Regional Weather Roundup
Issued by NWS

Home | Current Version | Previous Version | Text Only | Print | Product List | Glossary On
Versions: 1 2 3 4 5 6 7 8 9 10 11 12 13 14 15 16 17 18 19 20 21 22 23 24 25 26 27 28 29 30 31 32 33 34 35 36 37 38 39 40 41 42 43 44 45 46 47 48 49 50
000
ASUS43 KOAX 300902
RWRNE

WEATHER ROUNDUP FOR NEBRASKA
NATIONAL WEATHER SERVICE OMAHA NE
400 AM CDT WED JUL 30 2014

NOTES: SATELLITE DATA IS BEING USED TO AUGMENT CLOUD COVER ABOVE
       12000 FEET.
       "FAIR" INDICATES FEW OR NO CLOUDS BELOW 12,000 FEET WITH NO
       SIGNIFICANT WEATHER AND/OR OBSTRUCTIONS TO VISIBILITY.

  * THESE STATIONS DO NOT REPORT WEATHER SUCH AS RAIN...SNOW OR FOG.

NEZ001>004-019>022-054>056-301000-
NEBRASKA PANHANDLE

CITY           SKY/WX    TMP DP  RH WIND       PRES   REMARKS
SCOTTSBLUFF    CLOUDY    63  59  87 NE5       30.24F
ALLIANCE       CLOUDY    62  53  72 N5        30.24S
CHADRON        PTCLDY    55  53  93 CALM      30.23S
KIMBALL        DRIZZLE   60  59  97 N3        30.26S
SIDNEY         LGT RAIN  62  60  93 CALM      30.25F
$$

NEZ057>060-069>072-079>082-301000-
SOUTHWEST NEBRASKA

CITY           SKY/WX    TMP DP  RH WIND       PRES   REMARKS
NORTH PLATTE   CLOUDY    64  60  87 E3        30.18F
IMPERIAL       CLOUDY    63  60  90 SE8       30.19F
LEXINGTON      CLOUDY    66  59  78 CALM      30.17S
MCCOOK         LGT RAIN  63  61  93 E5        30.17S
OGALLALA       CLOUDY    63  60  91 CALM      30.21S
$$

NEZ005>010-023>029-035>040-094-301000-
NORTH CENTRAL NEBRASKA

CITY           SKY/WX    TMP DP  RH WIND       PRES   REMARKS
VALENTINE      PTCLDY    51  49  92 SW5       30.19S
AINSWORTH      PTCLDY    54  50  87 CALM      30.18F
BROKEN BOW     MOCLDY    58  56  93 CALM      30.17F
O`NEILL        PTCLDY    55  52  89 SW3       30.16F
ORD            PTCLDY    56  55  97 CALM      30.15F
THEDFORD       PTCLDY    55  54  95 CALM      30.20F
$$

NEZ041-046>049-061>064-073>077-083>087-301000-
SOUTH CENTRAL NEBRASKA

CITY           SKY/WX    TMP DP  RH WIND       PRES   REMARKS
GRAND ISLAND   CLOUDY    64  59  83 CALM      30.16S
AURORA         CLOUDY    61  60  96 CALM      30.15S
HASTINGS       CLOUDY    65  53  65 SE7       30.15S
HEBRON         CLOUDY    64  56  75 CALM      30.13F
HOLDREGE       CLOUDY    64  56  77 SE3       30.16S
KEARNEY *      CLOUDY    64  57  77 E3        30.16S
YORK           CLOUDY    63  59  88 CALM      30.15S
$$

NEZ011>018-030>034-042>045-301000-
NORTHEAST NEBRASKA

CITY           SKY/WX    TMP DP  RH WIND       PRES   REMARKS
NORFOLK        PTCLDY    56  53  90 CALM      30.14F
ALBION         PTCLDY    54  53  94 CALM      30.16S
BLAIR          CLEAR     59  53  79 CALM      30.12F
COLUMBUS *     PTCLDY    55  52  88 CALM      30.15R
FREMONT        CLEAR     57  54  91 W3        30.13F
TEKAMAH        PTCLDY    53  50  89 CALM      30.12S
WAYNE          PTCLDY    52  50  95 CALM      30.14S
$$

NEZ050>053-065>068-078-088>093-301000-
SOUTHEAST NEBRASKA

CITY           SKY/WX    TMP DP  RH WIND       PRES   REMARKS
LINCOLN        MOCLDY    59  56  89 N6        30.13F
OMAHA EPPLEY   PTCLDY    57  54  89 NW7       30.12F
BEATRICE       CLOUDY    60  58  92 CALM      30.13S
FALLS CITY     MOCLDY    59  56  89 NW3       30.11S
NEBRASKA CITY  MOCLDY    60  57  88 N3        30.12S
PLATTSMOUTH    PTCLDY    60  55  85 CALM      30.12F
$$

NEZ044-045-051>053-067-301000-
OMAHA AREA

CITY           SKY/WX    TMP DP  RH WIND       PRES   REMARKS
OMAHA EPPLEY   PTCLDY    57  54  89 NW7       30.12F
BLAIR          CLEAR     59  53  79 CALM      30.12F
FREMONT        CLEAR     57  54  91 W3        30.13F
MILLARD        CLEAR     59  57  94 CALM      30.12S
PLATTSMOUTH    PTCLDY    60  55  85 CALM      30.12F
WAHOO          FAIR      57  54  88 NW5       30.13S
$$


USA.gov is the U.S. government's official web portal to all federal, state and local government web resources and services.